                ,  0.721,  0.869,  1.017,  1.165,  1.312,  1.460,  1.608,  1.756,  1.904,  2.052,  2.199,  2.347,  2.495,  2.643,  2.791,  2.938,  3.086,  3.234,  3.382,  3.530,  3.677,  3.825,  3.973,  4.121,  4.269,  4.417,  4.564,  4.712,  4.860,  5.008,  5.156,  5.303
1999/07/20 00:00,   26.3,   27.7,  999.0,   29.1,   31.2,   33.3,   32.5,   26.3,   27.4,   35.0,   32.3,   36.3,   35.2,   39.5,   32.4,  999.0,   18.0,   16.0,   27.7,   20.1,   19.4,  999.0,  999.0,  999.0,   21.7,   25.3,   35.8,   32.9,   37.8,   37.6,  999.0,  999.0
1999/07/20 00:10,   26.9,   26.0,   27.9,   28.5,   28.0,   30.6,   31.9,   33.0,   25.5,   31.2,   29.4,   35.6,   35.2,   42.5,   33.7,   19.7,   19.2,   19.6,   30.7,   22.9,   19.5,   27.8,   19.5,  999.0,   18.3,   23.5,   38.1,   37.7,   40.6,   38.3,   24.9,  999.0
1999/07/20 00:20,   26.3,   24.5,   28.2,   34.9,   35.2,   24.1,   34.3,   32.5,   25.9,   23.2,   24.9,   37.9,   31.7,   41.1,   29.2,   20.6,   21.6,  999.0,   31.4,   28.8,   25.5,   31.6,   15.8,   18.3,   20.2,   16.5,   30.6,   37.5,   39.0,   27.2,  999.0,  999.0
1999/07/20 00:30,   27.1,   29.0,   31.7,   35.7,   41.0,   34.3,   33.4,   28.8,   24.7,   23.4,   25.3,   37.6,   35.6,   43.3,   30.8,   21.0,   20.4,   20.7,  999.0,   20.8,   23.4,   33.2,   16.0,   17.7,   20.8,   19.4,   23.2,   29.8,   40.5,   31.8,   22.0,   20.7
1999/07/20 00:40,   31.8,   27.6,   28.1,   29.5,   37.6,   33.4,   33.6,   27.5,   26.4,   24.2,   25.6,   35.0,   35.1,   42.4,   27.1,   23.1,   18.8,   18.6,   24.8,   18.3,   22.3,   27.0,   13.9,   16.8,   27.2,   25.4,   29.6,   30.3,   38.9,   24.6,   19.4,   20.7
1999/07/20 00:50,   28.8,   27.8,   24.7,   26.2,   32.4,   33.6,   35.0,   38.9,   27.8,   22.7,   26.1,   36.4,   40.8,   42.0,   24.1,   27.1,   18.9,  999.0,   22.4,   22.5,   20.4,   21.2,   18.0,   22.2,   24.5,   25.0,   27.2,   24.2,   40.6,   32.0,   23.7,   22.5
1999/07/20 01:00,   31.2,   30.2,   29.4,   26.1,   32.4,   34.5,   32.2,   36.9,   31.0,   23.6,   28.5,   38.6,   40.0,   26.8,   23.1,   29.7,   17.6,   16.8,   23.6,   21.2,   16.0,   16.2,   16.4,   20.2,   26.4,   30.9,   36.9,   32.3,   39.3,   31.2,   22.7,   23.5
1999/07/20 01:10,   32.9,   32.6,   32.7,   34.3,   29.6,   33.0,   33.8,   39.5,   32.7,   27.1,   28.1,   37.2,   43.2,   29.2,   18.7,   23.2,   18.9,   16.7,   19.5,   23.0,   18.3,  999.0,   13.7,   25.8,   29.1,   35.1,   33.9,   32.9,   34.7,   32.9,   23.1,   25.1
1999/07/20 01:20,   37.5,   31.1,   31.2,   32.7,   30.5,   36.0,   32.9,   41.2,   30.1,   22.4,   28.5,   34.8,   39.4,   31.9,   26.7,   25.5,   17.7,   18.1,   20.6,   25.6,   18.9,  999.0,  999.0,   19.9,   29.1,   26.0,   38.3,   30.4,   30.3,   27.4,   18.9,   21.6
1999/07/20 01:30,   35.0,   30.0,   31.3,   32.8,   31.4,   33.4,   30.3,   41.7,   30.9,   22.8,   23.5,   27.8,   33.3,   34.1,   28.1,   26.2,   17.8,   18.4,   18.3,   23.4,   21.1,   20.1,  999.0,   16.3,   23.0,   30.4,   35.4,   35.4,   26.7,   24.4,   18.5,   20.0
1999/07/20 01:40,   33.8,   33.0,   29.4,   28.5,   30.7,   35.9,   34.0,   36.4,   34.4,   24.5,   19.9,   22.4,   34.8,   34.6,   28.1,   28.8,   23.8,   17.7,   19.9,   25.9,   17.6,   21.3,  999.0,   21.6,   28.3,   30.8,   27.7,   39.0,   29.5,   22.0,   17.8,  999.0
1999/07/20 01:50,   38.4,   31.4,   28.5,   27.3,   30.9,   31.8,   29.2,   32.3,   40.2,   32.0,   24.0,   29.1,   30.9,   34.4,   33.0,   25.1,   25.4,   23.4,   18.0,   26.2,   19.3,   17.6,  999.0,   25.6,   25.8,   24.5,   26.4,   34.9,   28.8,   19.3,   21.1,   22.7
1999/07/20 02:00,   40.2,   33.3,   30.4,   28.5,   31.1,   33.3,   29.9,   30.4,   37.8,   32.3,   25.4,   26.2,   30.2,   38.9,   32.3,   28.5,   24.9,   27.2,   20.0,   27.8,   19.2,   16.0,   17.1,   22.9,   27.3,   25.9,   27.4,   37.1,   27.5,   21.6,   28.7,   26.1
1999/07/20 02:10,   37.6,   30.1,   26.9,   28.3,   32.7,   31.2,   25.4,   29.0,   35.1,   36.4,   27.6,   23.3,   35.1,   36.8,   30.7,   27.5,   28.0,   24.5,   22.1,   24.5,   18.1,   17.0,   19.6,   21.4,   32.5,   26.0,   18.4,   39.8,   32.3,   24.4,   28.4,   25.8
1999/07/20 02:20,   39.4,   27.9,   29.2,   27.3,   33.8,   28.1,   26.3,   34.0,   33.1,   36.6,   34.8,   24.2,   31.5,   25.6,   22.0,   29.9,   28.4,   31.4,   20.0,   29.5,   19.2,   16.7,   17.0,   25.0,   27.8,   24.6,   17.3,   20.0,   24.6,   17.9,   24.8,   27.1
1999/07/20 02:30,   42.0,   30.3,   31.8,   30.4,   32.7,   25.9,   30.5,   39.3,   37.9,   39.0,   36.3,   24.5,   29.0,   24.6,   20.1,   26.9,   33.2,   33.8,   22.5,   27.3,   23.4,   14.1,   22.3,   25.1,   31.2,   33.1,   22.2,   18.2,   18.9,   17.5,   22.8,   23.7
1999/07/20 02:40,   43.7,   33.2,   30.4,   34.3,   35.4,   28.3,   30.8,   33.4,   36.6,   39.7,   44.0,   35.3,   28.4,   23.6,   18.6,   25.7,   35.8,   32.7,   24.4,   21.5,   21.4,   18.0,   21.6,   33.2,   35.2,   29.2,   24.2,   18.4,  999.0,   19.1,   22.4,   22.2
1999/07/20 02:50,   44.5,   33.5,   26.0,   28.8,   34.5,   34.3,   31.0,   33.1,   33.0,   33.6,   40.5,   36.1,   27.5,   27.1,   18.2,   25.4,   31.6,   36.1,   24.6,   26.1,   17.3,  999.0,   21.7,   35.3,   33.3,   27.5,   25.6,   25.4,   25.7,   25.7,   24.5,   22.2
1999/07/20 03:00,   42.5,   36.6,   28.1,   29.2,   30.2,   30.0,   31.5,   31.3,   34.3,   36.0,   34.3,   31.3,   26.3,   21.7,   21.1,   24.4,   24.9,   23.6,   18.9,   22.6,   19.1,  999.0,   23.1,   24.5,   29.4,   29.7,   24.2,   19.6,   16.3,   18.9,   22.0,   26.5
1999/07/20 03:10,   43.4,   37.2,   26.5,   26.4,   29.0,   29.7,   32.8,   29.6,   32.3,   29.6,   23.5,   30.0,   24.9,  999.0,   24.2,   22.6,   19.7,   21.3,   19.5,   17.8,   19.8,  999.0,   21.8,   30.9,   28.8,   27.6,   23.5,   19.2,  999.0,   18.6,  999.0,   21.8
1999/07/20 03:20,   39.9,   31.4,   24.8,   25.5,   28.9,   23.8,   30.0,   30.3,   33.0,   29.6,   27.9,   32.7,   27.3,   20.1,   27.3,   26.3,   22.9,   25.3,   17.8,   19.4,   19.1,   18.3,   21.2,   28.6,   29.1,   22.7,   21.1,   18.2,  999.0,   22.5,   17.5,   20.2
1999/07/20 03:30,   39.0,   32.2,   26.4,   23.9,   27.3,   26.8,   27.4,   32.4,   36.0,   27.2,   30.5,   30.1,   24.0,   23.1,   25.4,   29.6,   25.4,   21.4,   18.2,   26.3,   18.4,   18.6,   17.6,   27.4,   27.0,   24.1,   23.5,   13.9,  999.0,   21.2,   14.8,   22.0
1999/07/20 03:40,   41.8,   35.0,   27.3,   25.2,   33.3,   26.6,   26.1,   29.7,   35.1,   26.8,   27.3,   32.7,   19.7,   20.4,   29.5,   20.2,   20.2,   19.7,   21.8,   22.4,   19.3,  999.0,   23.3,   29.3,   33.4,   27.6,   25.1,   17.7,  999.0,   21.9,  999.0,  999.0
1999/07/20 03:50,   38.3,   32.7,   30.8,   33.0,  999.0,   29.8,   27.6,   34.0,   29.1,   28.4,   35.7,   26.6,   26.2,   26.1,   32.8,   32.0,   20.1,   16.2,   23.0,   26.4,   18.4,  999.0,  999.0,   21.6,   30.7,   22.8,   21.1,   17.1,   17.2,  999.0,  999.0,   19.2
1999/07/20 04:00,   39.8,   30.0,   28.9,   28.4,  999.0,   30.3,   26.0,   31.6,   26.4,   26.1,   35.3,   29.2,   25.4,   28.9,   32.3,   29.1,   23.0,   15.1,   17.3,   30.1,   21.4,   22.3,   16.6,   19.0,   30.4,   22.6,   17.5,   14.8,   17.2,   17.7,  999.0,   21.5
1999/07/20 04:10,   38.6,   28.2,   26.4,   32.7,  999.0,   25.7,   32.0,   30.6,   27.3,   31.1,   31.4,   26.9,   26.0,   29.0,   34.2,   32.2,   23.4,   17.1,   28.0,   26.0,   25.1,   15.5,   18.7,   24.4,   30.0,   24.2,   17.6,   20.6,   19.7,   17.8,   15.9,   21.0
1999/07/20 04:20,   35.8,   23.9,   21.4,   29.0,   31.2,   26.9,   33.7,   37.9,   33.0,   38.5,   26.7,   29.0,   26.3,   28.3,   28.5,   32.7,   23.2,   21.9,   32.0,   28.7,   31.5,   18.0,   24.7,   25.7,   23.7,  999.0,   21.2,   21.0,   17.2,  999.0,  999.0,   25.5
1999/07/20 04:30,   30.9,   24.8,   22.7,   28.7,   31.1,   32.9,   36.7,   38.8,   36.9,   31.3,   28.5,   26.8,   27.0,   24.3,   27.3,   30.9,   25.3,   23.3,   30.5,   32.5,   24.4,   19.6,   26.1,   21.8,   20.0,   20.2,  999.0,  999.0,  999.0,  999.0,   18.6,   25.1
1999/07/20 04:40,   29.3,   25.7,   24.0,   30.0,   34.0,   37.1,   34.8,   37.9,   39.3,   24.3,   23.9,   27.1,   26.8,   24.9,   22.6,   22.7,   22.0,   20.3,   27.2,  999.0,   25.1,   15.9,   24.0,   20.1,  999.0,   16.3,   17.2,   13.5,  999.0,  999.0,   16.9,   23.7
1999/07/20 04:50,   29.7,   26.7,   23.0,   26.1,   30.3,   33.8,   35.5,   37.3,   38.9,   23.1,   24.3,   27.6,   30.3,   22.1,   25.7,   23.7,   17.9,   17.0,   22.0,   28.6,   29.0,   24.0,   16.6,   16.7,  999.0,   15.9,   17.6,   18.7,  999.0,   15.6,  999.0,   20.4
1999/07/20 05:00,   35.0,   34.0,   24.3,   27.5,   30.8,   29.6,   31.2,   33.7,  999.0,   22.5,   24.1,   33.7,   29.1,   30.6,   24.5,   22.1,   21.0,   24.0,   22.2,   25.8,   32.5,   23.2,   17.4,  999.0,  999.0,  999.0,   16.4,   19.2,  999.0,   18.2,  999.0,   18.6
1999/07/20 05:10,   38.2,   36.0,   26.6,   28.5,   31.3,   27.3,   29.7,   26.7,  999.0,   27.9,   20.7,   29.7,   26.3,   27.8,   23.0,   20.2,   16.4,   21.5,   24.1,   27.7,   32.3,   21.0,   19.9,  999.0,  999.0,   13.6,   18.5,   16.6,  999.0,   17.0,  999.0,  999.0
1999/07/20 05:20,   35.7,   33.5,   25.4,   28.1,   30.4,   24.2,   27.8,   30.8,   27.3,   23.2,   23.5,   34.8,   35.8,   32.3,   22.3,   17.8,   20.1,   19.6,   22.4,   24.1,   21.4,   25.6,   17.9,   21.8,   13.3,  999.0,   15.7,   17.8,   16.3,   18.7,  999.0,  999.0
1999/07/20 05:30,   35.2,   30.9,   27.5,   27.9,   29.1,   23.6,   26.9,   35.6,   28.2,   24.1,   32.0,   37.2,   37.9,   29.9,   22.2,   23.1,   22.2,   19.8,   23.9,   25.3,   29.0,   30.7,   16.0,   19.9,  999.0,   19.8,  999.0,   17.0,  999.0,  999.0,  999.0,   15.8
1999/07/20 05:40,   34.4,   32.4,   28.4,   28.6,   28.2,   26.3,   23.6,  999.0,   32.3,   29.4,   28.9,   32.4,   30.2,   21.6,   20.2,   26.5,   23.7,   18.2,   18.5,   21.6,   29.8,   29.4,   16.9,  999.0,  999.0,   17.6,   16.7,   19.3,  999.0,  999.0,  999.0,  999.0
1999/07/20 05:50,   29.6,   30.8,   29.1,   28.7,   35.2,   29.9,   27.6,   30.9,   32.9,   33.5,   25.0,   26.6,   30.4,   25.4,   22.3,   34.9,   32.0,   22.9,   18.6,   21.8,  999.0,   37.4,   22.5,   18.3,  999.0,   13.9,   18.9,   18.2,  999.0,  999.0,   16.6,  999.0
1999/07/20 06:00,   29.1,   29.6,   32.9,   37.9,   39.0,   30.1,   30.1,   28.7,   30.7,   23.6,   24.4,   22.8,   33.5,   24.7,   20.1,   27.3,   28.1,   22.6,   20.6,   33.8,   38.8,   36.5,   21.4,   17.0,   14.3,  999.0,   18.0,  999.0,  999.0,   12.1,   13.0,  999.0
1999/07/20 06:10,   33.3,   29.6,   30.1,   41.1,   39.9,   33.3,   32.5,   29.9,  999.0,   25.0,   20.5,   22.1,   30.0,   24.5,   23.0,   27.1,   26.0,   30.8,   34.6,   32.7,   39.0,   34.6,   19.5,   18.1,  999.0,   14.5,   18.5,   14.7,  999.0,  999.0,   16.5,    8.5
1999/07/20 06:20,   35.6,   32.2,   29.8,   39.6,   41.6,   48.0,   33.9,   31.4,   29.1,   22.9,   20.2,   21.8,   24.1,   25.8,   28.0,   30.9,   26.8,   29.8,   33.0,   31.5,   35.2,   35.2,   22.2,   21.1,   17.6,  999.0,   18.7,  999.0,   17.7,  999.0,  999.0,  999.0
1999/07/20 06:30,   31.2,   28.7,   31.8,   39.0,   45.2,   46.3,   49.8,   35.0,   24.7,   21.0,   22.8,   23.9,   27.2,   29.6,   31.1,   32.5,   35.4,   33.7,   28.2,   32.0,   35.8,   33.1,   27.8,  999.0,   20.7,   17.7,   16.6,  999.0,  999.0,  999.0,   19.7,  999.0
1999/07/20 06:40,   31.1,   26.4,   30.3,   36.8,   43.0,   45.2,   45.9,   30.5,   30.9,   27.8,   27.4,   29.3,   24.3,   27.3,   29.2,   27.6,   31.3,   36.3,   32.3,   38.9,   34.3,  999.0,   28.7,  999.0,   17.9,   18.8,  999.0,  999.0,   17.2,   18.5,   17.4,  999.0
1999/07/20 06:50,   31.1,   28.4,   30.1,   35.6,   40.4,   44.6,   42.0,   27.9,   30.3,   27.0,   30.7,   24.6,   23.5,   24.6,   24.6,   28.7,   24.7,   25.3,   33.8,  999.0,   36.8,   33.7,   29.1,   18.6,   16.5,   15.3,   17.8,   15.7,   22.6,   23.0,   23.2,   26.0
1999/07/20 07:00,   28.5,   30.7,   28.9,   36.3,   39.1,   42.1,   46.0,   33.1,   30.8,   24.5,   22.1,   22.4,   22.4,   22.6,   29.8,   27.3,   26.7,   28.7,   30.4,   32.7,   33.9,   32.3,   25.1,   16.3,   18.4,   19.4,  999.0,  999.0,   18.4,   27.1,   24.6,   24.4
1999/07/20 07:10,   32.4,   27.9,   30.3,   35.3,   35.7,   41.8,   44.0,   35.1,   39.0,   31.2,   31.4,   26.5,   29.4,   28.3,   31.4,   26.4,   25.7,   23.0,   25.0,   31.4,   34.4,   37.2,   26.2,   19.9,   21.8,   21.0,   17.4,   14.9,   20.4,   24.1,   23.1,   18.6
1999/07/20 07:20,   32.6,   26.8,   30.4,   34.5,   35.3,   38.5,   47.1,   36.1,   31.3,   32.8,   32.0,   26.7,   24.6,   28.1,   28.6,   25.3,   24.6,   24.3,   22.8,   32.7,   34.2,   35.2,   24.1,   21.8,   26.8,   19.9,   17.1,   18.6,   18.9,   17.2,   20.4,   16.4
1999/07/20 07:30,   32.7,   26.8,   21.9,   36.7,   29.3,   32.8,   46.9,   38.8,   33.3,   34.4,   39.6,   32.5,   28.6,   28.7,   28.5,   27.7,   19.9,   22.0,   29.4,   28.5,   33.3,   35.0,   21.9,   26.3,   24.9,   24.2,   16.8,   15.9,   19.9,   19.3,   21.1,  999.0
1999/07/20 07:40,   30.6,   25.9,   31.7,   39.5,   32.4,   36.9,   45.1,   31.1,   29.8,   31.1,   34.1,   28.8,   26.2,   21.0,   16.9,   20.8,   18.7,   25.9,   33.1,   32.1,   34.9,   22.7,  999.0,   22.5,   18.9,   17.9,  999.0,   16.3,   19.7,   23.5,   21.2,  999.0
1999/07/20 07:50,   30.4,   24.3,   30.8,   33.3,   33.6,   35.4,   43.0,   39.1,   34.4,   35.6,   38.3,   29.2,   24.8,   22.2,   24.8,   21.3,   24.8,   25.6,   27.1,   32.4,   29.5,   20.0,   23.9,   20.5,   25.3,   22.7,   18.8,   20.7,   18.9,   17.9,   18.1,   14.9
1999/07/20 08:00,   28.6,   32.6,   26.4,   29.6,   33.7,   37.4,   40.3,   43.8,   39.3,   34.1,   33.0,   24.4,   25.0,  999.0,   25.0,   21.4,   23.9,   22.1,   28.3,   32.3,   28.9,   19.9,   20.7,   19.2,   23.8,   20.3,   25.2,   23.2,   23.3,   20.7,   21.6,  999.0
1999/07/20 08:10,   27.3,   26.1,   27.7,   31.9,   38.4,   34.5,   40.3,   37.2,   38.6,   33.4,   25.9,   23.9,   21.7,   22.8,   26.9,   29.5,   20.7,   22.5,   25.9,   34.7,   29.5,   20.2,   17.9,   24.7,   29.5,   25.3,   22.2,   26.5,   21.0,   25.0,   18.0,  999.0
1999/07/20 08:20,   29.8,   26.8,   24.8,   30.0,   34.2,   35.8,   36.0,   33.6,   32.6,   28.0,   22.1,   20.8,   21.5,   21.3,   20.3,   27.3,   23.7,   20.9,   26.7,   34.3,   32.9,   20.2,  999.0,   22.7,   24.9,   28.8,   18.6,   25.3,   23.4,   27.3,   17.2,  999.0
1999/07/20 08:30,   31.3,   24.2,   23.3,   28.0,   31.8,   29.1,   30.0,   30.6,   35.9,   36.0,   27.5,   28.0,   24.0,   23.4,   21.2,   23.8,   22.3,   19.5,   28.8,   34.3,   30.1,   19.3,   21.0,   21.2,   24.8,   32.5,   18.6,   19.7,   23.4,  999.0,  999.0,   17.6
1999/07/20 08:40,   31.0,   29.6,   24.1,   27.1,   31.0,   34.1,   34.2,   29.1,   30.2,   29.9,   30.4,   28.5,   23.6,   18.8,   21.7,   25.3,   29.2,   23.5,   32.9,   32.4,   23.2,   16.4,   21.6,   25.7,   30.6,   31.5,   26.3,   26.5,   20.8,  999.0,  999.0,   19.5
1999/07/20 08:50,   33.3,   26.9,   26.9,   27.4,   37.8,   38.1,   38.6,   37.3,   35.1,   28.8,   28.2,   32.0,   28.8,   21.7,   18.2,   24.4,   22.5,   26.9,   35.6,   30.4,   28.9,   20.4,   24.6,   26.8,   30.6,   28.2,   24.9,   29.2,   18.9,  999.0,  999.0,   18.7
1999/07/20 09:00,   35.9,   29.0,   30.4,   32.5,   39.1,   39.7,   41.6,   48.5,   33.3,   30.4,   33.7,   32.6,   29.5,   28.8,   18.9,   18.5,   26.1,   25.8,  999.0,   27.1,   23.5,   19.4,   20.8,   24.6,   28.8,   27.6,   25.5,   24.9,   22.1,  999.0,   21.2,   18.6
1999/07/20 09:10,   35.5,   27.7,   33.3,  999.0,   39.3,   41.6,   42.1,   46.7,   28.7,   29.2,   28.9,   31.4,   26.7,   23.3,   20.7,   21.1,   23.2,   24.7,   24.1,   28.5,   26.5,   18.8,   21.4,   28.7,   28.2,   24.4,   28.8,   29.7,   24.6,   20.7,  999.0,  999.0
1999/07/20 09:20,   35.9,   31.3,   31.5,   30.6,   32.4,  999.0,   27.5,   32.0,   24.7,   24.8,   27.3,   21.2,   26.9,   29.4,   22.5,   21.9,   21.1,   29.4,   32.1,   26.9,   32.0,   23.5,   23.8,   22.2,   22.8,   21.1,   25.8,   27.0,   22.7,   18.3,   15.6,   19.0
1999/07/20 09:30,   36.2,   26.0,   28.1,   32.6,   36.8,   35.6,   37.2,   42.4,   26.6,   28.1,   44.6,   26.0,   27.8,   28.6,   28.2,   22.7,   25.2,   31.0,   29.0,   32.2,   34.6,   25.6,   23.7,   22.1,   26.4,   23.8,   27.5,   25.6,   23.1,   20.3,  999.0,   17.8
1999/07/20 09:40,   34.1,   27.7,   24.0,   29.9,   36.6,  999.0,  999.0,   31.3,   33.2,   24.2,   23.1,   28.8,   30.8,   25.2,   29.7,   28.0,   29.9,   29.4,   26.7,   25.2,  999.0,   31.5,   21.0,   25.2,   26.0,   25.9,   28.0,   18.8,   19.6,   14.4,  999.0,   17.3
1999/07/20 09:50,   33.3,   27.6,   26.4,   29.8,   31.3,   35.4,   35.5,   31.9,   33.7,   25.3,   24.7,   26.3,   28.1,   26.0,   28.0,   24.0,   30.5,   24.3,   23.6,   23.8,   23.8,   30.3,   19.9,   20.2,   28.1,   30.4,   25.5,   20.2,   18.3,   15.2,   15.6,   19.9
1999/07/20 10:00,   35.5,   30.5,   27.0,   29.1,   31.4,   31.2,   30.2,   31.5,   33.4,   26.0,   26.9,   25.7,   26.8,   26.3,   29.6,   20.9,   24.6,   25.0,   27.9,   23.3,   33.5,   31.3,   25.7,   28.4,   27.7,   22.7,   26.4,   24.3,   18.8,   15.6,   15.1,   18.5
1999/07/20 10:10,   37.9,   33.7,   24.2,   28.7,   31.8,   27.0,   28.9,   36.2,   30.8,   23.3,   24.6,   30.4,   25.4,   24.9,   24.8,   22.2,   21.9,   22.8,   29.6,   26.7,   35.8,   25.5,   26.9,   26.7,   29.1,   27.7,   28.3,   26.5,   21.7,   16.0,   16.1,   17.0
1999/07/20 10:20,   39.5,   28.2,   23.0,   31.2,   31.4,   28.5,   31.4,   37.1,   28.5,   21.3,   28.3,   34.3,   25.2,   22.6,   28.8,   22.7,   27.8,   27.3,   29.8,   29.2,   28.1,   27.2,   23.4,   23.2,   22.2,   27.0,   25.0,   26.4,   23.3,   14.2,   16.6,   16.8
1999/07/20 10:30,   36.0,   30.5,   29.5,   36.7,   32.4,   27.8,   32.6,   34.6,   26.6,   23.0,   26.9,   29.7,   25.8,   29.3,   25.6,   26.3,   36.8,   28.1,   29.7,   29.7,   20.9,   23.3,   25.2,   29.0,   25.8,   28.0,   25.2,   20.5,   20.7,   13.6,   18.0,   17.5
1999/07/20 10:40,   36.4,   28.3,   29.3,   36.5,   35.6,   29.8,   35.2,  999.0,   27.9,   23.5,   29.4,   27.2,   27.7,   30.7,   22.9,   28.4,   30.8,   24.1,   30.8,   28.5,   29.6,   25.6,   27.4,   26.2,   29.1,   29.9,   31.0,   25.7,   20.2,  999.0,   16.8,   18.1
1999/07/20 10:50,   32.7,   28.0,   30.3,   34.1,   33.4,   34.3,   38.0,   32.8,   28.2,   26.5,   26.3,  999.0,   21.3,   27.6,   23.0,   30.0,   28.6,   30.4,   34.5,   33.1,   27.5,   23.0,   22.7,   23.5,   22.4,   26.2,   24.3,   20.0,   19.3,   20.4,   19.0,   24.0
1999/07/20 11:00,   34.6,   27.1,   30.7,   33.6,   32.4,   35.1,   41.4,   37.5,   25.9,   23.0,   23.9,   34.8,   26.9,   26.3,  999.0,   24.0,   29.3,   28.9,   32.2,   22.1,   21.3,   18.3,   20.5,   24.7,   24.9,   26.7,   21.6,   24.1,   21.6,   18.7,   18.0,   23.2
1999/07/20 11:10,   30.1,   28.8,   25.6,   34.3,   33.7,   34.2,   39.0,   32.0,   25.6,   19.1,   22.8,   30.3,   27.7,   24.2,   21.2,   22.9,   28.8,   30.2,   26.6,   26.2,   31.3,   25.9,   24.2,   29.1,   26.8,   21.1,   25.6,   21.7,   20.5,   17.4,   18.0,   21.5
1999/07/20 11:20,   35.7,   24.4,   29.6,   31.5,   30.8,   28.6,   29.9,   25.7,   25.0,   17.1,   30.1,   25.5,   28.4,   26.9,   26.7,   29.5,   30.2,   28.6,   29.3,   28.5,   28.8,   28.0,   27.3,   27.5,   26.3,   27.3,   22.5,   21.0,   21.0,   15.3,   22.5,   20.6
1999/07/20 11:30,   30.2,   27.0,   26.4,   33.8,  999.0,   30.9,   27.7,   32.9,  999.0,  999.0,   28.0,   36.2,   31.3,   26.5,   28.5,   31.6,   39.4,   45.4,   40.3,   35.8,   36.5,   42.2,   37.5,   34.4,   33.9,   33.3,   28.3,   28.5,   21.9,   13.5,   23.0,   25.0
1999/07/20 11:40,   34.6,   42.5,   31.1,   36.9,   36.6,   28.3,  999.0,   24.6,   29.0,   24.1,   34.0,   34.0,   27.3,   25.9,  999.0,   30.8,   31.0,   27.7,   34.7,   35.1,   32.4,   32.8,   28.8,   29.8,   31.7,   29.7,   29.9,   26.4,   19.9,  999.0,   16.8,   23.3
1999/07/20 11:50,   42.0,   35.7,   32.4,   29.1,   29.3,   26.1,   28.6,   25.3,   26.5,   20.3,   29.0,   31.7,   24.8,   26.7,   34.0,   33.4,   25.2,   31.9,   29.1,   26.9,   27.7,   26.1,   23.2,   24.3,   29.6,   23.5,   24.2,  999.0,  999.0,   17.7,   17.3,   19.9
1999/07/20 12:00,   45.8,   36.5,   33.7,   28.4,   30.4,   30.9,   24.1,   24.7,   23.3,   20.4,   24.5,  999.0,   24.0,   23.5,   30.7,   23.1,   18.8,   29.6,   28.4,   26.8,   27.0,   25.8,   24.1,   25.0,   29.6,   26.0,   30.8,   19.7,   16.9,  999.0,  999.0,   17.5
1999/07/20 12:10,   44.1,   43.0,   28.7,   27.6,   32.1,   31.2,   22.8,   31.7,   20.0,   23.9,   27.1,   27.4,   23.3,   21.3,   29.1,   21.6,   25.0,   30.0,   31.7,   25.4,   25.6,   25.7,   23.5,   27.4,   27.6,   25.1,   27.7,   19.6,  999.0,  999.0,  999.0,   17.3
1999/07/20 12:20,   41.4,   44.1,   31.9,   31.6,   30.6,   29.1,   27.0,   21.9,   24.5,   31.3,   21.8,   26.3,   21.3,   26.2,   27.4,   25.1,   27.9,   33.3,   23.1,   25.3,   26.0,   20.2,   22.6,   21.4,   22.1,   23.1,   23.4,   17.8,   19.1,   16.7,  999.0,   16.6
1999/07/20 12:30,   41.5,   39.9,   28.3,   25.1,   32.7,   30.3,   28.5,   31.1,   29.9,   26.5,   22.4,   23.6,   25.1,   28.5,   26.5,   26.3,   28.8,   27.8,   24.6,   32.6,   19.8,   24.8,   24.2,   19.1,   18.3,   23.4,   23.8,  999.0,   18.4,   14.9,  999.0,   16.2
1999/07/20 12:40,   36.6,   31.5,   26.0,   29.1,   30.9,   29.0,   28.9,   25.4,   30.1,   25.1,   28.0,   25.2,   21.8,   26.2,   28.7,   29.6,   35.7,   31.0,   32.2,   26.6,   22.9,   23.7,   26.3,   20.2,   21.4,   21.4,   18.0,  999.0,   16.2,   13.9,  999.0,   18.2
1999/07/20 12:50,   40.0,   36.2,   26.7,   28.6,   31.0,   30.3,   31.2,   35.1,   36.1,   30.7,   28.6,   29.8,   28.2,   30.7,   36.4,   34.9,   34.5,   35.1,   31.7,   20.4,   26.6,   28.1,   25.3,   20.4,   21.1,   19.6,   17.5,  999.0,   19.6,  999.0,   15.7,   21.4
1999/07/20 13:00,   40.8,   31.3,   30.6,   30.2,   27.6,   31.8,   34.7,   37.2,   36.3,   33.2,   30.5,   24.0,   28.0,   33.3,   36.8,   35.4,   36.1,   41.0,   32.2,   29.6,   25.6,   21.7,   23.3,   22.2,   23.0,   18.6,   16.5,   17.8,   16.3,   15.7,  999.0,   20.3
1999/07/20 13:10,   46.1,   35.6,   35.8,   32.1,   28.7,   23.9,   31.8,   32.8,   32.4,   28.5,   33.8,   28.7,   25.9,   25.9,   31.6,   31.3,   32.9,   35.8,   26.5,   27.4,   22.1,   19.1,   19.8,   25.1,   28.1,   18.6,   19.2,   17.7,  999.0,  999.0,   15.7,   19.0
1999/07/20 13:20,   38.0,   45.8,   38.2,   34.8,   30.8,   27.7,   29.4,   31.1,   21.9,   27.4,   31.1,   24.3,   22.9,   23.4,   29.2,   31.6,   34.2,   32.4,   23.8,   26.1,   24.4,   21.0,   25.9,   26.2,   28.7,   21.9,  999.0,  999.0,   16.0,  999.0,   24.1,   23.1
1999/07/20 13:30,   38.8,   49.7,   35.1,   33.5,   31.7,   30.9,   28.9,   26.6,   26.6,   33.7,   25.5,   32.9,   24.6,   28.4,   33.4,   33.1,   37.7,   34.3,   28.9,   24.9,   18.9,   22.7,   29.6,   23.4,   20.6,   21.2,   20.2,   20.2,   13.8,   20.7,   28.7,   20.0
1999/07/20 13:40,   38.1,   48.3,   43.7,   36.3,   36.3,   30.9,   35.6,   33.3,   33.1,   26.1,   30.0,   30.3,   26.8,   30.5,   30.1,   36.6,   31.3,   31.4,   34.1,   22.4,   20.9,   23.3,   21.8,   17.7,   22.1,   15.3,  999.0,  999.0,  999.0,   20.7,   30.4,   25.1
1999/07/20 13:50,   41.1,   44.4,   49.1,   35.5,   31.0,   36.1,   41.5,   33.0,   30.5,   28.2,   33.0,   32.9,   27.7,   30.1,   34.7,   32.1,   32.7,   32.8,   36.0,   31.6,   24.0,   29.5,   22.6,   19.3,   19.7,   22.1,   18.1,  999.0,   16.9,  999.0,   22.1,   26.9
1999/07/20 14:00,   38.3,   42.5,   50.7,   52.4,   38.9,   34.4,   41.5,   33.0,  999.0,   34.0,  999.0,   43.1,   41.2,   39.1,   39.6,   39.2,   36.3,   41.6,   40.1,   39.4,   35.2,   34.0,   23.2,   18.0,   18.5,   23.2,   19.7,  999.0,   16.6,  999.0,   20.6,   22.2
1999/07/20 14:10,   40.9,   42.0,   47.3,   45.3,   40.1,   34.7,   35.3,   35.1,   29.6,   31.1,   34.6,   31.3,   29.4,   34.2,   36.3,   35.8,   35.3,   33.1,   34.5,   31.8,   33.7,   34.5,   21.4,   16.6,   18.3,   21.6,   21.9,   19.8,   18.0,  999.0,   22.0,   26.8